EW6288 Weather Reports


Display with metric or nautical units.
time (UTC)temp
F
wind
direction
speed
MPH
gust
MPH
rain 1hr
in
rain 24hr
in
rain mn
in
humidity
%
barometer
mb
20260902095607 82 0 1.0 8.0 0.00 0.00 0.00 85 1013.2
20260902095602 82 0 1.0 8.0 0.00 0.00 0.00 85 1013.1
20260902094603 82 0 1.0 8.0 0.00 0.00 0.00 85 1013.2
20260902094101 82 0 1.0 8.0 0.00 0.00 0.00 85 1013.2
20260902093600 82 0 1.0 4.0 0.00 0.00 0.00 85 1013.3
20260902093057 83 0 1.0 4.0 0.00 0.00 0.00 84 1013.3
20260902092555 83 0 2.0 4.0 0.00 0.00 0.00 84 1013.2
20260902092325 83 0 2.0 4.0 0.00 0.00 0.00 84 1013.3
20260902091556 83 0 1.0 5.0 0.00 0.00 0.00 84 1013.2
20260902091326 83 0 1.0 5.0 0.00 0.00 0.00 84 1013.2
20260902090551 83 0 2.0 8.0 0.00 0.00 0.00 84 1013.2
20260902090050 83 0 1.0 8.0 0.00 0.00 0.00 84 1013.1
20260902085550 83 0 1.0 6.0 0.00 0.00 0.00 84 1013.2
20260902085047 83 0 1.0 6.0 0.00 0.00 0.00 84 1013.2
20260902084548 83 0 1.0 6.0 0.00 0.00 0.00 84 1013.2
20260902084048 83 0 1.0 6.0 0.00 0.00 0.00 84 1013.2
20260902083542 83 0 1.0 6.0 0.00 0.00 0.00 84 1013.2
20260902083042 83 0 1.0 6.0 0.00 0.00 0.00 84 1013.3
20260902082540 83 0 1.0 5.0 0.00 0.00 0.00 84 1013.2
20260902082040 83 0 1.0 4.0 0.00 0.00 0.00 84 1013.2
20260902081540 83 0 1.0 6.0 0.00 0.00 0.00 84 1013.3
20260902081042 83 0 1.0 5.0 0.00 0.00 0.00 84 1013.3
20260902080539 83 0 1.0 4.0 0.00 0.00 0.00 84 1013.3
20260902080035 83 0 1.0 5.0 0.00 0.00 0.00 84 1013.2
20260902075536 83 0 1.0 8.0 0.00 0.00 0.00 84 1013.3
20260902075036 83 0 2.0 8.0 0.00 0.00 0.00 84 1013.3
20260902074530 83 0 1.0 6.0 0.00 0.00 0.00 84 1013.3
20260902074033 83 0 1.0 6.0 0.00 0.00 0.00 84 1013.3
20260902073532 83 0 2.0 8.0 0.00 0.00 0.00 84 1013.3
20260902073031 83 0 2.0 9.0 0.00 0.00 0.00 84 1013.3
20260902072531 83 0 2.0 9.0 0.00 0.00 0.00 84 1013.4
20260902072302 83 0 2.0 9.0 0.00 0.00 0.00 84 1013.3
20260902071530 83 0 1.0 9.0 0.00 0.00 0.00 84 1013.3
20260902071030 82 0 1.0 9.0 0.00 0.00 0.00 84 1013.3
20260902070533 82 0 1.0 9.0 0.00 0.00 0.00 83 1013.3
20260902070300 82 0 1.0 4.0 0.00 0.00 0.00 83 1013.3
20260902070148 82 0 1.0 3.0 0.00 0.00 0.00 83 1013.3
20260902065033 82 0 1.0 3.0 0.00 0.00 0.00 83 1013.3
20260902064531 82 0 1.0 6.0 0.00 0.00 0.00 83 1013.2
20260902064028 82 0 0.0 6.0 0.00 0.00 0.00 83 1013.2
20260902063524 82 0 1.0 3.0 0.00 0.00 0.00 83 1013.2
20260902063023 82 0 1.0 3.0 0.00 0.00 0.00 83 1013.2
20260902062524 81 0 0.0 3.0 0.00 0.00 0.00 83 1013.2
20260902062254 81 0 0.0 3.0 0.00 0.00 0.00 83 1013.1
20260902061756 81 0 0.0 3.0 0.00 0.00 0.00 82 1013.1
20260902061024 81 0 0.0 3.0 0.00 0.00 0.00 82 1013.1
20260902060524 81 0 0.0 4.0 0.00 0.00 0.00 82 1013.0
20260902060258 81 0 0.0 4.0 0.00 0.00 0.00 82 1013.0
20260902055750 81 0 0.0 2.0 0.00 0.00 0.00 82 1013.1
20260902055023 80 0 0.0 2.0 0.00 0.00 0.00 82 1013.0
20260902054521 81 0 0.0 2.0 0.00 0.00 0.00 82 1013.0
20260902054020 81 0 0.0 0.0 0.00 0.00 0.00 82 1013.0
20260902053520 81 0 0.0 0.0 0.00 0.00 0.00 82 1013.0
20260902053252 81 0 0.0 0.0 0.00 0.00 0.00 82 1013.2
20260902052520 81 0 0.0 0.0 0.00 0.00 0.00 82 1013.3
20260902052026 81 0 0.0 0.0 0.00 0.00 0.00 82 1013.3
20260902052022 81 0 0.0 0.0 0.00 0.00 0.00 82 1013.3
20260902051018 81 0 0.0 0.0 0.00 0.00 0.00 82 1013.3
20260902050516 81 0 0.0 0.0 0.00 0.00 0.00 82 1013.3
20260902050016 81 0 0.0 0.0 0.00 0.00 0.00 82 1013.3
20260902045516 81 0 0.0 0.0 0.00 0.00 0.00 82 1013.3
20260902045016 81 0 0.0 0.0 0.00 0.00 0.00 82 1013.3
20260902044517 81 0 0.0 0.0 0.00 0.00 0.00 81 1013.4
20260902044248 81 0 0.0 0.0 0.00 0.00 0.00 81 1013.5
20260902044133 81 0 0.0 0.0 0.00 0.00 0.00 81 1013.5
20260902043016 81 0 0.0 0.0 0.00 0.00 0.00 81 1013.4
20260902042518 81 0 0.0 0.0 0.00 0.00 0.00 81 1013.4
20260902042015 81 0 0.0 0.0 0.00 0.00 0.00 81 1013.4
20260902041516 81 0 0.0 0.0 0.00 0.00 0.00 81 1013.4
20260902041016 81 0 0.0 0.0 0.00 0.00 0.00 81 1013.6
20260902040515 81 0 0.0 0.0 0.00 0.00 0.00 81 1013.4
20260902040013 81 0 0.0 0.0 0.00 0.00 0.00 81 1013.4
20260902035744 81 0 0.0 0.0 0.00 0.00 0.00 81 1013.5
20260902035014 81 0 0.0 0.0 0.00 0.00 0.00 81 1013.6
20260902034516 81 0 0.0 0.0 0.00 0.00 0.00 81 1013.7
20260902034012 81 0 0.0 0.0 0.00 0.00 0.00 81 1013.7
20260902033511 81 0 0.0 0.0 0.00 0.00 0.00 81 1013.7
20260902033010 81 0 0.0 0.0 0.00 0.00 0.00 80 1013.6
20260902032512 81 0 0.0 0.0 0.00 0.00 0.00 81 1013.6
20260902032013 81 0 0.0 0.0 0.00 0.00 0.00 81 1013.6
20260902031741 82 0 0.0 0.0 0.00 0.00 0.00 81 1013.5
20260902031017 82 0 0.0 0.0 0.00 0.00 0.00 81 1013.4
20260902030507 82 0 0.0 0.0 0.00 0.00 0.00 81 1013.4
20260902030005 82 0 0.0 0.0 0.00 0.00 0.00 80 1013.3
20260902025508 82 0 0.0 0.0 0.00 0.00 0.00 80 1013.2
20260902025005 82 0 0.0 0.0 0.00 0.00 0.00 80 1013.2
20260902024505 82 0 0.0 0.0 0.00 0.00 0.00 80 1013.1
20260902024010 82 0 0.0 0.0 0.00 0.00 0.00 80 1013.0
20260902024004 82 0 0.0 0.0 0.00 0.00 0.00 80 1013.0
20260902023004 82 0 0.0 0.0 0.00 0.00 0.00 80 1013.0
20260902022503 82 0 0.0 0.0 0.00 0.00 0.00 80 1012.8
20260902022003 82 0 0.0 0.0 0.00 0.00 0.00 80 1012.7
20260902021454 82 0 0.0 0.0 0.00 0.00 0.00 80 1012.7
20260902020955 82 0 0.0 0.0 0.00 0.00 0.00 80 1012.8
20260902020448 82 0 0.0 0.0 0.00 0.00 0.00 80 1012.7
20260902015947 82 0 0.0 0.0 0.00 0.00 0.00 79 1012.5
20260902015717 82 0 0.0 0.0 0.00 0.00 0.00 79 1012.4
20260902014945 83 0 0.0 0.0 0.00 0.00 0.00 79 1012.3
20260902014718 83 0 0.0 0.0 0.00 0.00 0.00 79 1012.1
20260902014443 83 0 0.0 0.0 0.00 0.00 0.00 79 1012.3
20260902013711 83 0 0.0 0.0 0.00 0.00 0.00 79 1012.1
20260902012938 83 0 0.0 0.0 0.00 0.00 0.00 79 1012.0
20260902012436 83 0 0.0 0.0 0.00 0.00 0.00 79 1012.0
20260902011937 83 0 0.0 0.0 0.00 0.00 0.00 79 1012.0
20260902011703 83 0 0.0 0.0 0.00 0.00 0.00 79 1012.0
20260902010925 83 0 0.0 0.0 0.00 0.00 0.00 79 1012.0
20260902010425 83 0 0.0 0.0 0.00 0.00 0.00 79 1012.0
20260902005926 83 0 0.0 0.0 0.00 0.00 0.00 79 1012.0
20260902005421 83 0 0.0 3.0 0.00 0.00 0.00 79 1012.0
20260902004921 83 0 0.0 3.0 0.00 0.00 0.00 79 1012.1
20260902004652 83 0 0.0 3.0 0.00 0.00 0.00 79 1012.2
20260902003917 83 0 0.0 3.0 0.00 0.00 0.00 79 1012.3
20260902003645 84 0 0.0 2.0 0.00 0.00 0.00 79 1012.3
20260902002914 84 0 0.0 2.0 0.00 0.00 0.00 79 1012.3
20260902002416 84 0 0.0 2.0 0.00 0.00 0.00 79 1012.2
20260902001914 84 0 0.0 2.0 0.00 0.00 0.00 79 1012.2
20260902001411 84 0 1.0 4.0 0.00 0.00 0.00 79 1012.2
20260902000911 84 0 1.0 4.0 0.00 0.00 0.00 79 1012.2
20260902000410 84 0 1.0 4.0 0.00 0.00 0.00 79 1012.2
20260901235909 84 0 1.0 4.0 0.00 0.00 0.00 79 1012.1
20260901235639 84 0 1.0 5.0 0.00 0.00 0.00 79 1012.1
20260901234907 85 0 1.0 5.0 0.00 0.00 0.00 79 1012.1
20260901234409 85 0 2.0 5.0 0.00 0.00 0.00 79 1012.1
20260901233907 85 0 2.0 10.0 0.00 0.00 0.00 79 1012.1
20260901233407 85 0 2.0 10.0 0.00 0.00 0.00 79 1012.2
20260901232909 85 0 1.0 6.0 0.00 0.00 0.00 80 1012.2
20260901232406 85 0 1.0 5.0 0.00 0.00 0.00 79 1012.3
20260901231906 85 0 2.0 5.0 0.00 0.00 0.00 79 1012.3
20260901231406 86 0 2.0 9.0 0.00 0.00 0.00 79 1012.4
20260901231134 86 0 1.0 9.0 0.00 0.00 0.00 79 1012.5
20260901230633 86 0 2.0 9.0 0.00 0.00 0.00 79 1012.5
20260901225904 87 0 3.0 9.0 0.00 0.00 0.00 79 1012.6
20260901225403 87 0 2.0 9.0 0.00 0.00 0.00 79 1012.7
20260901224903 87 0 2.0 5.0 0.00 0.00 0.00 79 1012.6
20260901224402 87 5 1.0 5.0 0.00 0.00 0.00 79 1012.6
20260901223901 87 13 0.0 3.0 0.00 0.00 0.00 78 1012.6
20260901223403 87 331 0.0 2.0 0.00 0.00 0.00 78 1012.5
20260901222903 87 331 0.0 4.0 0.00 0.00 0.00 78 1012.4
20260901222401 87 5 0.0 4.0 0.00 0.00 0.00 78 1012.4
20260901221901 87 5 1.0 4.0 0.00 0.00 0.00 78 1012.4
20260901221401 87 5 1.0 4.0 0.00 0.00 0.00 78 1012.4
20260901220905 87 310 0.0 2.0 0.00 0.00 0.00 77 1012.4
20260901220358 86 310 0.0 1.0 0.00 0.00 0.00 77 1012.5
20260901215858 86 310 0.0 1.0 0.00 0.00 0.00 77 1012.5
20260901215357 86 310 0.0 3.0 0.00 0.00 0.00 77 1012.7
20260901214858 86 310 0.0 3.0 0.00 0.00 0.00 76 1012.7
20260901214403 86 311 0.0 1.0 0.00 0.00 0.00 76 1013.0
20260901214359 86 310 0.0 3.0 0.00 0.00 0.00 76 1012.9
20260901213358 86 311 0.0 1.0 0.00 0.00 0.00 76 1013.0
20260901212857 86 311 0.0 1.0 0.00 0.00 0.00 75 1013.1
20260901212358 86 311 0.0 1.0 0.00 0.00 0.00 76 1013.0
20260901211857 86 311 0.0 2.0 0.00 0.00 0.00 75 1012.9
20260901211357 86 311 0.0 2.0 0.00 0.00 0.00 75 1012.9
20260901211126 86 311 0.0 3.0 0.00 0.00 0.00 76 1012.9
20260901210353 86 311 0.0 3.0 0.00 0.00 0.00 76 1012.8
20260901205855 85 311 0.0 2.0 0.00 0.00 0.00 76 1012.8
20260901205624 85 312 0.0 3.0 0.00 0.00 0.00 76 1012.8
20260901204855 85 312 0.0 3.0 0.00 0.00 0.00 76 1012.7
20260901204354 85 312 0.0 3.0 0.00 0.00 0.00 77 1012.7
20260901203857 85 312 1.0 3.0 0.00 0.00 0.00 77 1012.7
20260901203351 85 311 0.0 2.0 0.00 0.00 0.00 77 1012.7
20260901202849 85 323 0.0 3.0 0.00 0.00 0.00 78 1012.8
20260901202350 85 323 0.0 3.0 0.00 0.00 0.00 78 1013.0
20260901201851 86 323 1.0 3.0 0.00 0.00 0.00 77 1013.1
20260901201350 86 321 1.0 3.0 0.00 0.00 0.00 77 1013.2
20260901200847 86 310 1.0 3.0 0.00 0.00 0.00 77 1013.4
20260901200348 86 11 0.0 2.0 0.00 0.00 0.00 77 1013.6
20260901195847 86 11 0.0 2.0 0.00 0.00 0.00 77 1013.7
20260901195349 86 11 1.0 3.0 0.00 0.00 0.00 77 1013.9
20260901194847 86 11 1.0 3.0 0.00 0.00 0.00 77 1014.0
20260901194347 86 15 1.0 3.0 0.00 0.00 0.00 77 1014.0
20260901193846 86 0 1.0 3.0 0.00 0.00 0.00 78 1014.1
20260901193348 86 320 1.0 3.0 0.00 0.00 0.00 78 1014.1
20260901193118 86 315 1.0 3.0 0.00 0.00 0.00 77 1014.0
20260901192348 86 315 1.0 3.0 0.00 0.00 0.00 77 1014.0
20260901191849 87 332 0.0 2.0 0.00 0.00 0.00 77 1013.9
20260901191347 86 332 0.0 2.0 0.00 0.00 0.00 76 1014.0
20260901191117 87 332 0.0 3.0 0.00 0.00 0.00 76 1014.0
20260901190348 87 332 1.0 3.0 0.00 0.00 0.00 76 1013.9
20260901185848 87 321 0.0 5.0 0.00 0.00 0.00 74 1014.0
20260901185347 87 329 1.0 5.0 0.00 0.00 0.00 74 1014.0
20260901184847 87 274 2.0 5.0 0.00 0.00 0.00 73 1014.1
20260901184622 87 273 2.0 5.0 0.00 0.00 0.00 76 1014.1
20260901183847 87 315 1.0 4.0 0.00 0.00 0.00 73 1014.2
20260901183347 87 32 1.0 4.0 0.00 0.00 0.00 72 1014.2
20260901182848 87 315 1.0 4.0 0.00 0.00 0.00 73 1014.3
20260901182344 87 32 1.0 2.0 0.00 0.00 0.00 71 1014.3
20260901181848 87 50 1.0 5.0 0.00 0.00 0.00 74 1014.3
20260901181843 87 35 1.0 5.0 0.00 0.00 0.00 72 1014.3
20260901180843 87 61 1.0 5.0 0.00 0.00 0.00 74 1014.4
20260901180612 87 333 1.0 5.0 0.00 0.00 0.00 74 1014.5
20260901175842 87 23 2.0 5.0 0.00 0.00 0.00 76 1014.6
20260901175342 87 5 1.0 5.0 0.00 0.00 0.00 76 1014.7
20260901174840 88 49 1.0 3.0 0.00 0.00 0.00 73 1014.8
20260901174339 88 5 1.0 4.0 0.00 0.00 0.00 72 1014.9
20260901173838 88 0 1.0 4.0 0.00 0.00 0.00 74 1015.0
20260901173338 88 65 1.0 3.0 0.00 0.00 0.00 75 1015.2
20260901173110 88 36 1.0 4.0 0.00 0.00 0.00 74 1015.2
20260901172343 88 309 2.0 8.0 0.00 0.00 0.00 74 1015.3
20260901172338 88 323 1.0 4.0 0.00 0.00 0.00 73 1015.3
20260901171337 87 44 1.0 8.0 0.00 0.00 0.00 76 1015.5
20260901170837 87 9 1.0 5.0 0.00 0.00 0.00 76 1015.6
20260901170337 86 342 2.0 5.0 0.00 0.00 0.00 77 1015.7
20260901165835 86 5 1.0 5.0 0.00 0.00 0.00 77 1015.7
20260901165335 86 53 1.0 5.0 0.00 0.00 0.00 77 1015.7
20260901164834 86 53 2.0 5.0 0.00 0.00 0.00 79 1015.8
20260901164334 86 24 2.0 5.0 0.00 0.00 0.00 79 1015.8
20260901163835 85 0 2.0 5.0 0.00 0.00 0.00 79 1015.8
20260901163604 85 355 1.0 4.0 0.00 0.00 0.00 79 1015.8
20260901162833 85 55 1.0 4.0 0.00 0.00 0.00 80 1015.7
20260901162334 85 56 2.0 7.0 0.00 0.00 0.00 80 1015.8
20260901161829 85 308 2.0 7.0 0.00 0.00 0.00 81 1015.7
20260901161330 85 317 1.0 7.0 0.00 0.00 0.00 81 1015.6
20260901160827 85 348 2.0 6.0 0.00 0.00 0.00 81 1015.7
20260901160328 85 24 2.0 6.0 0.00 0.00 0.00 81 1015.6
20260901155826 84 58 2.0 6.0 0.00 0.00 0.00 82 1015.5
20260901155326 84 308 1.0 6.0 0.00 0.00 0.00 82 1015.4
20260901154823 84 336 2.0 7.0 0.00 0.00 0.00 82 1015.4
20260901154322 84 342 2.0 7.0 0.00 0.00 0.00 83 1015.4
20260901154053 84 9 2.0 7.0 0.00 0.00 0.00 83 1015.6
20260901153320 84 5 2.0 6.0 0.00 0.00 0.00 84 1015.5
20260901152820 84 0 1.0 4.0 0.00 0.00 0.00 84 1015.4
20260901152315 83 0 1.0 3.0 0.00 0.00 0.00 85 1015.4
20260901151813 83 0 1.0 5.0 0.00 0.00 0.00 85 1015.5
20260901151313 83 0 2.0 5.0 0.00 0.00 0.00 85 1015.5
20260901150817 83 322 1.0 5.0 0.00 0.00 0.00 86 1015.5
20260901150813 83 313 1.0 5.0 0.00 0.00 0.00 85 1015.5
20260901150041 83 304 1.0 5.0 0.00 0.00 0.00 86 1015.6
20260901145309 83 310 1.0 4.0 0.00 0.00 0.00 86 1015.5
20260901144810 82 333 1.0 4.0 0.00 0.00 0.00 86 1015.4
20260901144536 82 355 1.0 3.0 0.00 0.00 0.00 86 1015.4
20260901143803 82 350 1.0 3.0 0.00 0.00 0.00 87 1015.4
20260901143533 82 351 0.0 3.0 0.00 0.00 0.00 87 1015.5
20260901142803 82 333 0.0 4.0 0.00 0.00 0.00 87 1015.6
20260901142300 82 308 1.0 4.0 0.00 0.00 0.00 87 1015.6
20260901141801 82 307 1.0 4.0 0.00 0.00 0.00 87 1015.6
20260901141301 81 328 1.0 4.0 0.00 0.00 0.00 88 1015.7
20260901140804 81 0 1.0 3.0 0.00 0.00 0.00 88 1015.6
20260901140758 81 301 1.0 4.0 0.00 0.00 0.00 88 1015.6
20260901135756 81 0 1.0 3.0 0.00 0.00 0.00 88 1015.6
20260901135255 81 0 1.0 2.0 0.00 0.00 0.00 88 1015.6
20260901134754 81 0 1.0 3.0 0.00 0.00 0.00 88 1015.7
20260901134255 81 0 0.0 3.0 0.00 0.00 0.00 88 1015.8
20260901133755 81 0 1.0 3.0 0.00 0.00 0.00 88 1015.9
20260901133255 81 0 1.0 4.0 0.00 0.00 0.00 88 1015.8
20260901132755 81 0 1.0 4.0 0.00 0.00 0.00 88 1015.7
20260901132253 81 0 0.0 2.0 0.00 0.00 0.00 87 1015.7
20260901131753 80 0 0.0 3.0 0.00 0.00 0.00 87 1015.6
20260901131253 80 0 1.0 3.0 0.00 0.00 0.00 87 1015.5
20260901130753 80 0 1.0 3.0 0.00 0.00 0.00 87 1015.3
20260901130523 80 0 1.0 3.0 0.00 0.00 0.00 87 1015.2
20260901125752 80 0 1.0 3.0 0.00 0.00 0.00 87 1015.1
20260901125252 80 0 0.0 3.0 0.00 0.00 0.00 87 1015.1
20260901124752 80 0 1.0 3.0 0.00 0.00 0.00 87 1015.1
20260901124523 80 0 1.0 3.0 0.00 0.00 0.00 87 1015.1
20260901123753 80 0 0.0 2.0 0.00 0.00 0.00 87 1015.0
20260901123250 80 0 0.0 2.0 0.00 0.00 0.00 87 1014.9
20260901122750 80 0 1.0 2.0 0.00 0.00 0.00 87 1014.8
20260901122520 80 0 0.0 2.0 0.00 0.00 0.00 87 1014.8
20260901121750 80 0 0.0 1.0 0.00 0.00 0.00 86 1014.7
20260901121520 80 0 0.0 1.0 0.00 0.00 0.00 86 1014.7
20260901121017 80 0 0.0 0.0 0.00 0.00 0.00 86 1014.6
20260901120245 80 0 0.0 0.0 0.00 0.00 0.00 86 1014.5
20260901115749 80 0 0.0 0.0 0.00 0.00 0.00 86 1014.6
20260901115518 80 0 0.0 0.0 0.00 0.00 0.00 86 1014.6
20260901114746 80 0 0.0 0.0 0.00 0.00 0.00 86 1014.5
20260901114243 80 0 0.0 0.0 0.00 0.00 0.00 86 1014.5
20260901113741 80 0 0.0 0.0 0.00 0.00 0.00 86 1014.5
20260901113511 80 0 0.0 1.0 0.00 0.00 0.00 86 1014.5
20260901112739 80 0 0.0 1.0 0.00 0.00 0.00 86 1014.5
20260901112240 80 0 0.0 1.0 0.00 0.00 0.00 86 1014.5
20260901111743 81 0 0.0 1.0 0.00 0.00 0.00 86 1014.4
20260901111739 80 0 0.0 1.0 0.00 0.00 0.00 86 1014.5
20260901110741 81 0 0.0 1.0 0.00 0.00 0.00 86 1014.5
20260901110508 80 0 0.0 1.0 0.00 0.00 0.00 85 1014.5
20260901105736 81 0 0.0 1.0 0.00 0.00 0.00 85 1014.4
20260901105237 81 0 0.0 1.0 0.00 0.00 0.00 86 1014.4
20260901104736 81 0 0.0 1.0 0.00 0.00 0.00 85 1014.3
20260901104230 81 0 0.0 1.0 0.00 0.00 0.00 85 1014.3
20260901103733 81 0 0.0 1.0 0.00 0.00 0.00 85 1014.3
20260901103230 81 0 0.0 1.0 0.00 0.00 0.00 85 1014.3
20260901102729 81 0 0.0 1.0 0.00 0.00 0.00 85 1014.3
20260901102229 81 0 0.0 1.0 0.00 0.00 0.00 85 1014.3
20260901102000 81 0 0.0 0.0 0.00 0.00 0.00 85 1014.2
20260901101231 81 0 0.0 0.0 0.00 0.00 0.00 85 1014.3
20260901100730 81 0 0.0 0.0 0.00 0.00 0.00 85 1014.3
20260901100227 81 0 0.0 0.0 0.00 0.00 0.00 85 1014.3